Location: Newark
(45.4422°N, 16.2769°E)
Time: 02:10:44
(UTC+00:00)

Courier 1B Rocket - Visible Passes

Search period start: 14 December 2019 00:00
Search period end: 24 December 2019 00:00
Orbit: 920 x 1202 km, 28.2° (Epoch: 12 December)

Date Brightness Start Highest point End Pass type
(mag) Time Alt. Az. Time Alt. Az. Time Alt. Az.
14 Dec 7.3 04:16:06 10° SSW 04:20:11 16° S 04:24:08 10° SE visible
15 Dec 7.3 03:17:10 12° S 03:19:26 14° SSE 03:22:58 10° SE visible
15 Dec 7.2 05:07:15 10° SW 05:11:47 18° S 05:16:10 10° SE visible
16 Dec 7.6 02:20:08 11° SSE 02:20:08 11° SSE 02:21:14 10° SE visible
16 Dec 7.1 04:06:31 10° SW 04:11:02 18° S 04:15:32 10° SE visible
17 Dec 7.1 03:09:25 17° S 03:10:15 17° S 03:14:39 10° SE visible
17 Dec 7.1 04:58:01 10° SW 05:02:39 18° S 05:07:08 10° SE visible
18 Dec 7.6 02:12:15 13° SE 02:12:15 13° SE 02:13:29 10° SE visible
18 Dec 7.0 03:58:37 15° SSW 04:01:53 19° S 04:06:40 10° SE visible
18 Dec 7.3 05:50:35 10° SW 05:54:12 15° SSW 05:57:42 10° SSE visible
19 Dec 7.0 03:01:26 19° S 03:01:26 19° S 03:05:58 10° SE visible
19 Dec 7.1 04:48:58 10° SW 04:53:29 17° S 04:57:50 10° SSE visible
20 Dec 7.6 02:04:13 12° SE 02:04:13 12° SE 02:05:02 10° SE visible
20 Dec 6.9 03:50:35 17° SSW 03:52:42 19° S 03:57:34 10° SE visible
20 Dec 7.3 05:42:25 10° SW 05:44:59 12° SSW 05:47:29 10° S visible
21 Dec 7.1 02:53:20 19° SSE 02:53:20 19° SSE 02:57:02 10° SE visible
21 Dec 7.2 04:40:13 10° SW 04:44:16 15° SSW 04:48:11 10° SSE visible
22 Dec 7.8 01:56:05 10° SE 01:56:05 10° SE 01:56:14 10° SE visible
22 Dec 6.9 03:42:27 18° SSW 03:43:30 18° S 03:48:13 10° SSE visible
23 Dec 7.2 02:45:11 17° SSE 02:45:11 17° SSE 02:47:51 10° SE visible
23 Dec 7.3 04:31:56 10° SW 04:35:00 13° SSW 04:38:01 10° S visible
